EHI
12 12 10 9 12 14 13 11 9 8 7 6 6 5 3 1 1 2 3 3 3 3 3 3 2 1 0 0 0 0 0 0 0 0 0 0 0 0 0 0 0 0 0
12 12 11 11 13 16 15 13 11 9 7 6 4 3 2 1 0 1 2 2 3 3 3 3 2 1 0 0 0 0 0 0 0 0 0 0 0 0 0 0 0 0 0
12 13 13 13 15 17 17 15 13 11 9 7 4 2 1 0 0 0 1 1 1 2 2 2 2 1 0 0 0 0 0 0 0 0 0 0 0 0 0 0 0 0 0
11 13 15 15 15 17 17 16 14 13 10 8 5 3 1 0 0 0 0 0 0 1 1 1 1 0 0 0 0 0 0 0 0 0 0 0 0 0 0 0 0 0 0
9 12 15 15 14 15 16 14 13 12 10 7 5 2 1 0 0 0 0 0 0 0 0 0 0 0 0 0 0 0 0 0 0 0 0 0 0 0 0 0 0 0 0
7 10 12 12 11 12 12 12 11 10 8 6 4 2 0 0 0 0 0 0 0 0 0 0 0 0 0 0 0 0 0 0 0 0 0 0 0 0 0 0 0 0 0
5 7 10 11 11 10 9 8 8 7 6 5 3 1 0 0 0 0 0 0 0 0 0 0 0 0 0 0 0 0 0 0 0 0 0 0 0 0 0 0 0 0 0
5 7 11 13 12 11 8 6 5 5 5 4 2 1 0 0 0 0 0 0 0 0 0 0 0 0 0 0 0 0 0 0 0 0 0 0 0 0 0 0 0 0 0
7 9 11 12 12 10 8 6 4 4 4 3 1 0 0 0 0 0 0 0 0 0 0 0 0 0 0 0 0 0 0 0 0 0 0 0 0 0 0 0 0 0 0
7 8 9 11 10 9 7 5 4 4 4 3 1 0 0 0 0 0 0 0 0 0 0 0 0 0 0 0 0 0 0 0 0 0 0 0 0 0 0 0 0 0 0
7 7 8 9 9 7 5 4 3 4 4 3 1 0 0 0 0 0 0 0 0 0 0 0 0 0 0 0 0 0 0 0 0 0 0 0 0 0 0 0 0 0 0
5 6 7 7 7 6 4 3 3 3 4 3 2 0 0 0 0 0 0 0 0 0 0 0 0 0 0 0 0 0 0 0 0 0 0 0 0 0 0 0 0 0 0
3 4 5 6 6 4 3 3 3 3 3 2 1 0 0 0 0 0 0 0 0 0 0 0 0 0 0 0 0 0 0 0 0 0 0 0 0 0 0 0 0 0 0
3 3 4 5 5 4 3 3 3 3 2 2 1 0 0 0 0 0 0 0 0 0 0 0 0 0 0 0 0 0 0 0 0 0 0 0 0 0 0 0 0 0 0
2 2 3 4 4 3 3 3 3 3 2 1 0 0 0 0 0 0 0 0 0 0 0 0 0 0 0 0 0 0 0 0 0 0 0 0 0 0 0 0 0 0 0
1 1 1 3 3 3 3 4 4 4 2 0 0 0 0 0 0 0 0 0 0 0 0 0 0 0 0 0 0 0 0 0 0 0 0 0 0 0 0 0 0 0 0
0 0 1 2 2 2 3 4 5 4 2 0 0 0 0 0 0 0 0 0 0 0 0 0 0 0 0 0 0 0 0 0 0 0 0 0 0 0 0 0 0 0 0
0 0 0 1 1 1 2 3 4 3 1 0 0 0 0 0 0 0 0 0 0 0 0 0 0 0 0 0 0 0 0 0 0 0 0 0 0 0 0 0 0 0 0
0 0 0 0 0 0 1 3 3 1 0 0 0 0 0 0 0 0 0 0 0 0 0 0 0 0 0 0 0 0 0 0 0 0 0 0 0 0 0 0 0 0 0
0 0 0 0 0 1 2 3 2 1 0 0 0 0 0 0 0 0 0 0 0 0 0 0 0 0 0 0 0 0 0 0 0 0 0 0 0 0 0 0 0 0 0
0 0 0 0 0 1 2 3 2 1 0 0 0 0 0 0 0 0 0 0 0 0 0 0 0 0 0 0 0 0 0 0 0 0 0 0 0 0 0 0 0 0 0
0 0 0 0 0 0 1 2 2 1 0 0 0 0 0 0 0 0 0 0 0 0 0 0 0 0 0 0 0 0 0 0 0 0 0 0 0 0 0 0 0 0 0
0 0 0 0 0 0 0 1 1 0 0 0 0 0 0 0 0 0 0 0 0 0 0 0 0 0 0 0 0 0 0 0 0 0 0 0 0 0 0 0 0 0 0
0 0 0 0 0 0 0 0 0 0 0 0 0 0 0 0 0 0 0 0 0 0 0 0 0 0 0 0 0 0 0 0 0 0 0 0 0 0 0 0 0 0 0
0 0 0 0 0 0 0 0 0 0 0 0 0 0 0 0 0 0 0 0 0 0 0 0 0 0 0 0 0 0 0 0 0 0 0 0 0 0 0 0 0 0 0
0 0 0 0 0 0 0 0 0 0 0 0 0 0 0 0 0 0 0 0 0 0 0 0 0 0 0 0 0 0 0 0 0 0 0 0 0 0 0 0 0 0 0
Wind_Speed
2 2 3 3 3 2 2 2 2 1 1 1 1 1 1 0 0 0 0 1 1 1 2 1 1 0 1 0 1 1 1 1 1 1 2 2 2 2 1 1 2 2 3
3 3 3 3 3 2 2 1 1 1 1 1 1 1 1 1 1 0 0 1 1 1 1 1 1 1 1 0 0 0 0 0 0 0 0 2 3 2 2 2 2 2 2
5 3 3 3 3 2 2 2 1 1 1 1 1 2 2 1 1 1 1 1 0 0 1 1 1 1 1 1 1 0 0 1 1 0 1 1 2 3 2 2 2 3 2
4 4 4 3 3 3 2 2 1 2 2 2 2 3 2 1 1 0 0 1 1 1 1 0 1 1 1 1 1 1 1 1 1 1 0 1 2 1 2 2 2 3 3
5 5 4 4 3 2 2 2 2 2 2 2 2 2 1 0 1 1 1 1 1 1 1 0 0 1 1 1 1 0 1 1 1 1 1 1 1 2 2 3 3 3 2
4 3 3 3 2 2 2 2 2 2 2 2 2 2 2 1 1 1 1 1 1 1 1 1 1 0 0 0 1 1 1 1 1 1 2 2 1 2 2 3 3 4 3
4 4 4 3 2 2 2 2 2 2 2 2 2 2 1 1 1 0 0 1 1 1 2 1 1 1 1 1 0 1 1 1 1 2 2 2 2 2 2 2 2 3 3
3 3 4 4 3 2 2 2 2 2 1 1 1 1 1 1 0 0 1 1 1 2 2 2 2 2 1 1 0 0 1 1 2 2 2 2 2 2 2 2 1 2 2
3 3 3 3 3 2 2 2 2 1 1 1 1 1 1 0 0 1 1 1 2 2 2 2 2 1 1 1 0 1 1 1 1 2 2 1 2 1 2 2 2 2 3
3 3 3 3 3 2 2 2 2 1 1 1 1 1 0 1 1 1 1 2 2 1 2 2 1 1 1 1 0 1 1 1 1 1 1 1 1 1 1 2 2 2 3
4 4 3 3 3 2 2 2 2 1 1 0 0 1 1 1 1 1 2 2 2 2 2 1 1 1 1 1 0 1 1 1 2 2 1 2 2 2 2 1 1 2 2
3 3 2 3 2 2 2 1 1 1 0 0 0 1 1 1 2 2 2 2 2 2 2 1 1 1 1 1 1 2 1 1 2 3 2 3 2 2 2 1 2 2 3
2 2 3 3 2 2 1 1 1 1 0 0 0 0 1 1 2 2 2 2 2 2 2 2 2 2 2 2 2 2 2 2 2 3 3 3 3 3 3 2 2 2 2
3 3 3 2 2 2 2 2 1 1 1 1 1 0 1 2 2 2 2 2 1 2 2 2 2 3 2 2 2 2 2 2 2 2 3 3 3 4 4 3 3 3 2
3 3 3 3 3 2 2 2 2 1 1 1 1 1 1 1 1 2 2 2 2 2 2 2 3 3 2 2 2 2 2 2 2 3 3 3 4 5 4 3 3 3 2
4 4 4 4 4 3 3 2 2 1 1 1 1 1 1 1 1 2 2 2 2 2 2 2 3 3 3 4 3 2 2 2 2 3 3 3 4 5 5 5 5 4 3
4 4 4 4 4 4 3 3 2 1 1 1 1 1 1 1 2 1 1 1 1 2 2 3 2 3 4 5 4 3 1 1 2 2 3 3 3 4 3 4 5 4 4
4 4 4 4 3 3 2 2 2 2 1 0 1 1 1 1 1 1 1 2 1 1 2 3 3 2 4 5 4 3 2 1 2 2 3 3 4 4 4 4 4 4 4
4 3 3 4 3 3 3 3 2 1 1 1 1 1 1 1 1 1 2 1 1 2 2 2 2 2 4 5 5 3 1 2 3 3 3 3 4 5 4 2 4 5 5
2 2 3 3 3 3 4 3 2 1 1 2 2 1 1 1 1 2 2 1 1 2 2 3 3 2 4 5 5 4 1 2 3 3 3 4 4 5 4 2 3 5 6
2 3 3 3 2 3 4 3 2 2 3 2 1 1 1 1 1 1 1 1 1 2 2 3 4 3 4 5 6 4 1 2 3 3 4 4 6 6 6 4 4 6 7
2 3 3 2 1 3 4 3 2 3 1 1 0 1 1 1 1 1 2 1 1 2 3 3 4 4 3 4 5 5 4 3 3 4 4 5 8 8 8 5 6 7 6
2 2 3 2 1 2 4 3 3 1 1 1 0 1 2 1 1 1 2 2 1 1 3 3 3 4 4 4 5 6 6 5 3 4 7 8 9 8 6 7 8 5 3
2 2 2 2 1 1 2 2 2 2 2 1 1 1 1 2 2 1 1 1 2 2 2 3 3 4 4 4 3 3 3 4 3 4 6 8 7 6 6 6 5 3 3
2 2 3 3 3 2 1 1 2 2 2 1 0 1 1 1 2 2 2 2 3 4 4 4 4 4 5 6 6 4 4 4 4 4 3 3 3 4 4 4 4 3 3
2 2 2 2 2 2 2 1 2 2 2 1 0 1 1 1 1 2 4 4 4 6 7 8 7 6 8 10 10 9 8 8 6 3 3 4 4 5 5 6 5 4 4
Wind_Direction
188 147 142 137 124 118 109 101 90 74 102 122 147 145 151 126 98 227 225 171 179 177 160 164 172 143 157 240 283 263 270 299 317 328 328 323 312 301 303 306 307 315 305
172 160 155 150 145 141 135 120 118 115 140 158 143 137 133 148 175 221 330 236 210 206 173 162 171 157 153 59 346 317 243 320 36 121 0 325 327 334 322 309 306 321 322
196 179 174 185 166 152 161 162 184 160 128 107 103 86 68 56 46 29 359 334 303 186 153 179 176 159 160 221 249 240 195 251 278 211 153 172 269 310 311 321 331 333 322
193 185 183 188 181 178 153 131 119 91 89 109 134 141 145 174 228 227 263 342 18 44 80 143 168 186 206 231 245 189 200 195 226 259 237 205 199 239 300 311 320 324 317
184 184 184 181 175 153 133 125 104 78 84 107 122 121 98 54 23 43 38 2 1 8 18 9 198 213 225 233 247 202 190 201 205 206 211 218 224 222 238 286 307 316 304
172 166 154 148 145 123 115 107 101 81 75 87 96 109 115 102 76 43 28 358 339 333 349 3 18 267 227 245 266 261 235 225 225 225 209 203 211 223 224 256 292 303 307
159 153 149 151 138 117 103 96 104 87 85 93 94 101 126 128 133 169 61 334 314 305 305 308 287 271 256 253 250 255 276 250 239 241 237 227 230 225 224 247 274 290 303
158 155 156 154 149 130 116 107 105 107 120 129 112 82 84 113 183 218 221 254 268 275 283 284 275 278 280 287 262 253 262 251 253 259 253 251 254 234 221 222 245 290 298
167 161 151 156 153 146 157 143 125 107 96 104 104 92 85 64 319 311 279 263 264 273 287 285 284 288 289 295 293 281 279 287 277 274 268 262 267 257 243 230 224 235 276
171 168 167 170 161 156 152 117 129 152 169 130 128 112 62 332 307 316 315 300 298 302 300 295 298 321 330 325 318 286 289 307 293 276 298 303 287 279 266 246 239 234 245
186 184 178 169 150 131 129 134 152 145 127 83 74 58 17 348 339 323 313 315 316 316 297 288 309 313 318 317 300 282 288 296 299 298 290 294 293 286 277 255 241 240 236
179 169 160 148 144 147 154 158 141 126 184 190 86 26 1 349 343 324 316 322 321 320 313 310 309 298 303 289 264 280 290 283 293 298 298 292 296 295 283 257 250 253 243
165 153 148 158 172 176 172 163 164 196 210 125 91 11 337 337 323 313 319 327 330 332 333 327 298 294 296 286 270 263 279 282 282 286 285 286 289 288 283 269 260 263 266
167 159 164 182 188 187 189 184 204 205 183 159 186 263 294 301 299 306 318 320 323 322 320 316 302 293 289 282 273 266 280 291 293 288 282 283 273 269 273 276 269 266 273
169 176 184 188 185 192 201 193 200 213 192 197 245 260 274 300 314 315 321 328 329 316 311 315 312 304 298 283 274 270 275 280 297 306 302 291 285 275 269 265 266 266 266
189 193 192 188 191 197 196 190 198 206 178 210 249 262 278 318 317 312 327 342 337 331 333 317 312 313 316 314 312 296 281 285 291 304 310 305 304 307 300 283 270 252 243
198 196 196 192 197 197 185 185 192 168 151 226 258 278 303 317 310 313 339 331 326 335 333 323 324 323 323 326 327 326 305 295 297 296 304 311 312 314 311 311 311 295 260
201 204 194 190 192 182 170 168 154 146 151 202 270 296 306 309 322 339 331 322 326 328 320 317 321 324 323 333 335 337 345 312 298 287 280 290 305 312 310 313 317 311 297
194 195 188 178 173 170 164 149 141 129 142 226 258 264 247 274 315 321 310 316 336 326 318 316 325 326 321 329 330 337 333 315 309 302 297 287 293 303 312 314 311 313 307
167 158 148 140 156 166 152 146 148 151 207 240 252 258 248 252 278 281 290 310 310 305 319 327 316 308 306 313 322 329 317 309 306 310 306 293 291 302 306 288 293 300 298
140 136 137 148 173 158 146 150 165 206 227 236 247 275 284 276 269 298 303 302 316 329 329 321 315 312 302 307 314 318 300 284 299 306 306 305 309 304 300 284 263 265 279
111 127 138 149 153 147 147 159 202 224 208 163 220 301 314 310 319 315 311 316 334 334 323 321 320 319 312 303 305 309 298 279 276 287 293 296 306 307 300 289 275 276 279
137 128 142 139 127 156 158 177 220 194 139 118 274 306 322 327 324 299 300 315 323 309 306 309 308 309 309 302 296 296 300 301 282 281 284 292 298 302 297 286 287 286 277
157 134 133 147 178 191 172 189 202 157 139 156 293 316 331 328 337 325 290 288 291 290 293 296 297 300 304 301 303 305 306 306 302 301 301 301 295 290 280 289 293 277 260
170 152 160 183 202 193 192 193 170 155 164 184 272 322 332 320 328 324 295 274 264 242 248 265 266 278 291 288 287 288 297 300 300 309 304 306 313 317 311 302 294 285 277
174 162 177 195 198 187 210 215 176 165 161 170 254 275 298 312 317 321 321 301 268 277 260 248 249 262 261 277 290 295 291 292 293 292 288 298 301 301 302 304 303 293 283